{"data":{"norad_id":68029,"epoch":"2026-05-24T20:09:29.674656Z","epoch_age_seconds":88572,"freshness":"FRESH","line1":"1 68029U 26040Q   26144.83992679  .00020465  00000+0  63442-3 0  9995","line2":"2 68029  97.2845  93.8680 0001788  95.4177 264.7270 15.33449628 13134","mean_motion":15.33449628,"eccentricity":0.0001788,"inclination_deg":97.2845,"raan_deg":93.868,"arg_perigee_deg":95.4177,"mean_anomaly_deg":264.727,"bstar":0.00063442,"rev_number":1313,"period_min":93.905921244907,"perigee_km":464.30575728765,"apogee_km":466.75305239402,"semimajor_km":6843.6664048408,"source":"CELESTRAK","updated_at":"2026-05-25T13:38:21.807178Z"}}